Hourly Data Report for August 16, 2004

SHERBROOKE A
QUEBEC

45°26'00.000" N
71°41'00.000" W
241.40 m
7028124
71610
YSC

Download Data

Hourly Data (August 2004)
Hourly Data Report for August 16, 2004
TIME
LST
Temp Definition
°C
Dew Point Definition
°C
Rel Hum Definition
%
Precip. Amount Definition
mm

Wind Dir Definition
10's deg

Wind Spd Definition
km/h
Visibility Definition
km
Stn Press Definition
kPa
Hmdx Definition


Wind Chill Definition


Weather Definition


00:00 13.9 12.7 92   11 6 15.0 99.59      
01:00 13.5 12.4 93   9 6 15.0 99.59      
02:00 13.5 12.6 94   9 6 15.0 99.57      
03:00 13.5 12.6 94   8 6 12.9 99.58      
04:00 13.8 12.9 94     0 15.0 99.56      
05:00 13.8 12.9 94   3 6 12.9 99.56      
06:00 14.2 13.2 94   3 4 12.9 99.60      
07:00 15.2 14.1 93   11 4 19.3 99.60     Mostly Cloudy
08:00 16.4 14.7 90   10 4 19.3 99.58     Mostly Cloudy
09:00 18.1 15.5 85     0 19.3 99.53     Mostly Cloudy
10:00 19.5 16.1 81   12 4 19.3 99.51     Cloudy
11:00 20.1 16.1 78   13 6 19.3 99.45 25   Cloudy
12:00 20.2 16.6 80   18 6 19.3 99.42 25   Cloudy
13:00 20.5 16.5 78   15 4 19.3 99.35 25   Cloudy
14:00 20.9 15.6 72   14 4 19.3 99.31 25   Mostly Cloudy
15:00 21.4 15.3 68   15 7 19.3 99.27 26   Mostly Cloudy
16:00 21.2 14.5 66   10 4 19.3 99.25 25   Cloudy
17:00 19.6 15.8 79   12 7 15.0 99.20      
18:00 18.8 15.7 82     0 15.0 99.17      
19:00 17.7 15.1 85   17 4 15.0 99.18      
20:00 16.7 15.2 91   16 7 15.0 99.17      
21:00 16.0 14.6 91     0 15.0 99.17      
22:00 14.3 13.7 96     0 8.0 99.17      
23:00 14.9 14.1 95     0 8.0 99.16      

Notes on Data Quality.

Legend

  • E = Estimated
  • M = Missing
  • NA = Not Available*
  • [empty] = Indicates an unobserved value
Date modified: